FLOCK 3P-86

Last updated on Wed Feb 14 2018 16:20:26 GMT+0000 (Coordinated Universal Time)

1 41985U 17008AP 18044.69761213 .00001108 00000-0 48847-4 0 9990 2 41985 97.4684 110.3788 0009525 76.0227 284.2069 15.23878901 55139

Satellite not in orbit

FLOCK 3P-86